Theta_e
288 289 288 286 286 288 288 288 288 285 286 287 286 287 288 290 291 292 292 293 294 294 295 296 296 298 298 298 299 300 299 299 298 300 299 298 295 295 295 295 296 296 296 298
285 287 287 284 285 286 286 286 285 285 283 288 290 290 289 289 290 290 291 292 294 294 295 295 296 297 297 297 298 299 298 298 299 299 299 297 295 294 294 294 294 293 292 293
284 288 288 285 285 284 284 287 286 283 285 288 288 288 289 290 290 291 292 293 293 294 295 295 296 298 297 297 299 298 298 299 298 297 298 297 295 294 293 292 293 291 291 291
286 287 281 286 290 289 286 286 287 286 287 289 289 290 292 293 292 292 293 293 294 294 295 296 298 298 298 298 297 297 297 298 298 298 296 297 295 293 293 293 292 291 291 291
285 284 283 285 288 288 288 285 288 287 288 290 290 291 290 293 294 294 295 295 295 296 296 297 297 298 298 297 297 297 296 297 297 297 295 294 293 293 293 292 293 292 291 290
286 282 279 287 291 294 293 284 291 290 289 290 290 285 289 294 295 294 296 297 296 297 297 297 297 298 297 296 296 295 297 297 298 297 295 294 293 293 294 294 293 295 292 291
285 283 284 291 293 294 282 285 292 292 292 292 289 292 293 296 295 296 296 297 297 296 296 297 298 298 296 296 295 297 298 298 298 298 296 295 295 294 295 295 295 292 292 291
285 282 278 293 291 287 291 294 294 294 294 294 295 295 295 295 295 295 294 295 297 296 296 298 298 298 295 295 297 297 298 297 297 298 296 296 294 293 293 294 293 290 289 288
285 285 291 293 292 294 296 294 295 295 296 296 295 295 295 295 295 295 295 296 297 296 296 297 298 298 296 296 297 296 296 296 296 297 297 295 294 294 292 293 291 288 288 286
288 290 292 294 296 296 297 296 298 298 297 297 295 296 295 296 296 296 297 296 297 297 296 296 297 298 298 297 297 296 294 294 295 295 295 295 293 294 294 292 291 289 287 287
289 292 294 295 296 297 297 299 298 299 298 297 296 295 296 296 296 297 297 297 297 297 297 296 297 297 298 297 296 294 293 293 293 293 294 294 293 295 293 293 291 290 289 289
289 294 294 294 298 299 298 298 299 298 297 297 297 296 296 295 296 297 297 298 297 298 298 298 297 297 297 297 296 294 292 292 291 291 292 292 292 292 292 291 290 289 289 289
294 298 297 299 300 300 299 300 300 300 300 297 298 298 298 297 298 298 298 298 298 298 298 298 298 297 297 297 296 294 292 292 291 291 291 290 290 288 288 290 291 290 289 288
300 300 297 299 298 302 302 301 301 301 301 300 299 299 299 299 299 298 298 299 300 299 299 299 299 297 297 296 296 295 294 291 292 291 291 291 290 289 289 288 286 287 289 288
299 300 299 301 301 301 302 301 300 300 300 299 299 299 299 298 299 300 301 301 300 299 299 299 298 298 298 297 294 295 294 293 293 292 292 291 291 290 289 288 287 286 287 288
302 302 301 300 300 301 301 301 299 298 299 297 297 299 299 300 300 301 301 301 299 297 300 299 300 300 298 297 294 295 293 290 290 292 292 291 290 289 289 288 287 287 285 285
299 298 299 300 300 302 302 301 300 300 299 297 298 299 299 298 299 301 300 301 300 298 299 300 302 299 298 297 295 296 293 295 286 293 292 291 290 288 287 288 287 287 286 286
303 303 303 304 303 303 303 303 302 301 299 300 299 299 299 298 299 299 299 301 300 300 300 300 302 302 298 297 296 296 294 295 294 293 292 291 290 290 288 289 288 286 286 286
304 304 305 305 305 304 302 303 303 304 304 303 302 303 303 303 304 305 304 300 300 299 300 304 301 299 302 298 296 298 296 295 295 294 292 289 291 290 287 288 288 287 286 285
303 303 304 304 305 304 304 304 305 305 306 305 305 304 304 305 305 305 306 304 306 305 306 306 306 305 303 300 292 296 295 296 294 294 293 291 291 289 289 287 288 286 286 285
302 302 301 301 302 303 304 305 304 304 305 305 304 303 304 305 304 305 305 303 307 306 305 300 304 304 302 297 295 294 297 296 295 294 292 291 290 290 289 289 287 286 285 285
303 302 302 301 302 303 304 305 305 305 305 305 304 304 303 304 305 305 306 304 306 288 302 306 307 296 301 289 297 299 300 297 295 293 291 290 290 288 288 287 285 285 285 285
302 302 301 302 302 303 303 303 303 303 304 304 304 304 303 305 305 303 302 305 304 295 302 306 292 288 287 300 301 301 298 295 293 290 290 290 289 288 287 286 285 285 285 285
302 302 302 303 303 302 302 303 303 303 304 304 304 304 305 305 306 305 304 295 288 292 300 297 294 285 288 301 301 298 295 293 291 290 290 286 289 289 288 286 285 285 285 285
302 302 302 301 301 301 302 302 302 304 305 303 304 305 304 305 302 302 301 304 291 298 303 286 285 286 301 301 298 296 294 291 290 290 289 289 289 288 287 286 285 285 285 285
301 301 302 303 302 301 301 303 302 303 302 301 303 303 304 304 303 300 301 298 303 296 302 300 300 301 301 299 296 295 293 292 290 290 288 289 289 287 286 285 285 285 285 285
301 295 302 302 303 302 302 302 302 302 300 301 301 303 302 300 299 298 294 304 303 303 302 302 301 298 300 298 296 295 294 293 288 289 290 289 288 287 285 285 285 285 285 285
Wind_Speed
10 9 10 10 9 5 5 5 4 12 10 9 5 1 2 4 6 9 9 10 11 12 13 13 13 13 13 13 14 14 14 15 16 18 16 18 17 17 18 18 17 18 21 21
9 10 13 16 12 16 16 16 15 15 9 5 5 3 3 2 5 8 10 10 12 13 13 13 14 14 14 15 15 15 15 15 16 17 19 17 18 18 17 19 18 17 18 20
7 4 5 8 7 8 9 7 11 5 6 9 7 4 1 2 4 7 9 11 12 12 12 13 13 12 14 14 14 14 14 14 14 16 18 18 17 19 20 19 18 18 19 19
7 4 6 5 3 4 12 9 9 11 10 8 5 3 1 1 5 7 8 10 11 11 11 12 12 12 13 13 13 14 14 14 14 16 16 18 18 18 20 18 19 17 19 20
5 3 2 3 6 5 3 6 7 9 10 7 4 4 4 1 4 6 7 7 9 10 10 10 11 12 12 13 13 14 15 14 14 15 16 16 17 17 16 18 16 16 17 21
4 4 4 4 6 3 2 5 11 10 10 8 6 4 3 2 3 5 7 7 9 10 9 10 11 12 12 13 14 14 15 14 13 13 14 15 15 15 17 15 18 16 19 20
4 4 3 4 5 4 4 5 12 10 9 8 4 2 2 1 2 3 5 7 8 10 8 9 10 10 12 13 14 14 14 13 13 13 11 13 15 14 17 17 17 19 20 19
3 4 4 3 5 4 5 7 10 8 7 6 5 4 4 2 1 4 6 6 7 8 9 8 9 9 10 12 14 14 13 13 13 13 8 9 13 14 15 16 17 17 17 16
4 3 4 2 1 5 5 9 7 7 6 5 5 5 4 4 1 1 3 5 5 6 8 7 8 9 10 12 13 14 13 14 13 13 12 8 10 12 10 13 13 14 14 14
3 4 7 7 6 5 7 6 6 4 4 6 4 5 4 5 4 3 3 4 5 6 7 9 8 9 9 11 12 13 13 14 13 12 13 11 5 9 10 11 11 12 13 12
8 7 7 5 5 7 6 4 4 2 3 6 5 5 5 4 5 5 5 5 4 5 5 7 8 9 9 10 12 13 12 12 13 11 12 10 7 7 8 11 12 11 11 11
3 9 1 8 6 6 5 5 5 4 4 5 6 5 5 5 5 5 6 6 6 5 6 6 7 7 8 9 11 11 11 10 10 10 10 10 10 9 7 7 10 14 17 14
6 7 5 5 4 5 5 5 6 6 7 6 6 6 7 6 6 6 7 7 7 7 6 6 5 6 6 7 9 10 10 10 8 9 10 10 10 10 11 10 8 8 13 16
9 7 4 4 3 5 6 4 5 7 6 7 7 7 8 8 7 8 9 8 7 7 7 6 6 5 4 5 6 8 8 4 8 8 8 9 10 10 10 11 11 11 11 12
4 2 2 0 3 2 4 4 6 7 6 7 8 9 8 9 9 10 9 8 8 9 9 8 7 5 3 3 4 6 7 8 8 7 7 7 9 10 9 10 10 10 10 9
1 2 3 5 5 5 5 7 7 7 6 8 7 10 10 9 10 10 10 9 8 8 8 6 8 6 5 5 4 3 3 4 6 8 8 8 7 8 10 10 10 11 10 10
2 3 2 4 3 4 6 6 7 8 7 6 10 8 6 7 9 9 9 9 7 9 10 8 9 6 9 7 6 3 2 4 3 7 8 8 8 8 8 9 9 9 10 10
5 6 6 8 7 6 6 4 4 6 7 8 6 6 8 8 11 12 10 8 8 10 9 7 9 9 9 10 7 4 2 4 5 6 7 9 9 8 8 10 10 9 9 9
4 7 6 7 4 4 3 3 2 1 1 1 3 5 6 8 10 11 10 9 9 9 9 7 6 9 9 7 6 1 3 5 5 6 7 7 8 9 8 10 11 10 10 9
1 2 1 2 2 2 2 3 2 3 3 3 3 4 5 5 6 7 7 9 10 6 7 8 7 6 5 7 7 2 4 4 5 6 7 8 8 9 8 8 10 10 10 9
0 1 3 4 3 3 4 4 5 6 5 4 5 3 4 5 5 6 7 7 7 5 7 5 3 2 2 3 6 3 4 3 5 7 8 9 8 9 9 10 11 10 10 10
2 3 2 3 4 6 5 5 5 7 7 6 3 3 4 8 6 6 4 4 6 4 5 3 2 3 2 4 4 3 2 3 5 7 8 8 8 8 9 10 10 10 10 10
3 4 4 4 5 7 8 5 4 5 6 5 3 5 4 5 4 5 7 7 6 6 4 3 4 0 5 3 2 2 4 5 7 8 7 8 7 8 9 10 10 9 10 10
4 4 5 5 5 5 5 7 6 5 4 3 4 4 4 6 5 2 5 5 2 4 4 4 5 5 2 3 3 4 4 5 6 7 7 6 7 8 8 9 9 10 10 10
6 6 5 4 4 2 4 4 4 4 4 4 4 4 3 1 3 5 6 5 3 3 4 5 5 4 2 3 4 4 4 4 5 6 7 7 8 8 9 9 9 9 10 10
4 4 2 1 3 4 4 2 4 2 3 5 4 3 2 3 4 4 5 3 4 4 4 3 3 2 2 3 4 3 3 4 4 6 6 7 8 8 9 10 10 10 10 10
1 2 2 3 2 3 3 3 3 2 2 4 3 2 3 4 5 6 5 3 3 4 3 2 1 1 1 3 3 2 1 2 3 5 6 7 8 8 9 9 9 10 10 10
Wind_Direction
66 76 93 88 67 79 100 103 255 141 144 161 154 94 340 332 333 341 351 357 358 353 350 350 352 348 347 343 344 341 342 346 348 344 341 340 341 332 324 328 325 322 316 314
69 97 98 90 73 81 86 91 94 121 121 144 147 177 230 297 340 348 354 355 352 353 351 351 349 346 341 344 343 342 348 349 347 349 352 348 342 342 336 339 335 329 334 330
142 147 177 96 45 86 101 91 135 153 120 158 168 181 195 336 349 350 350 349 350 351 348 346 343 340 340 341 341 343 345 350 353 351 351 355 348 345 348 342 341 342 340 340
136 195 210 80 58 119 107 105 112 113 137 152 141 144 186 345 327 332 344 347 351 349 346 345 343 341 335 341 345 343 349 351 354 350 347 353 352 344 342 344 348 351 347 344
156 118 78 185 178 176 204 147 148 135 144 146 146 174 137 9 322 323 331 337 349 346 346 345 351 344 338 343 346 347 350 348 350 346 349 348 351 341 343 343 350 356 349 350
151 146 185 75 150 137 148 148 160 151 148 151 167 198 82 359 347 351 353 347 349 349 350 354 351 344 345 350 349 350 347 347 345 348 348 349 351 342 347 343 358 352 2 358
115 103 116 121 133 155 234 99 152 151 152 161 163 111 116 245 47 353 346 350 356 358 350 353 348 346 352 351 354 347 346 345 348 354 341 353 351 352 351 353 357 1 1 3
111 113 167 134 131 215 96 129 144 155 165 181 201 181 191 162 32 7 6 1 357 353 352 348 350 343 346 352 349 348 349 351 350 349 346 354 355 356 356 357 358 360 359 5
5 80 66 114 108 119 136 140 154 165 172 187 177 176 173 165 168 0 3 5 356 346 348 349 350 350 344 344 350 351 353 355 350 350 353 2 355 359 358 2 4 357 2 3
156 113 102 109 109 124 145 140 152 178 182 187 164 171 175 187 206 238 284 321 336 351 0 358 353 354 354 347 349 351 355 355 352 352 353 2 358 2 3 7 7 5 2 359
99 119 127 133 140 152 164 169 184 200 204 185 181 179 187 206 215 231 254 268 287 323 348 0 355 2 0 353 351 355 358 359 358 356 360 4 353 344 1 14 10 7 5 358
142 161 126 152 168 175 192 210 221 231 198 196 202 197 203 216 223 234 245 261 268 291 307 342 355 0 7 6 1 359 357 2 5 355 359 360 356 354 355 2 2 10 6 10
116 136 105 129 172 188 221 231 232 234 228 219 210 219 217 228 230 239 251 256 261 270 285 297 328 353 6 7 9 9 360 357 357 1 0 0 1 356 350 1 355 22 13 4
129 139 141 181 138 193 222 233 240 245 243 226 230 223 237 245 254 251 258 265 270 265 267 274 286 321 342 351 6 11 1 357 346 354 355 354 358 359 353 352 352 353 5 1
164 229 66 44 200 241 224 225 235 238 235 219 223 242 240 248 257 266 275 276 268 263 266 266 261 273 261 292 341 4 4 7 351 350 354 341 351 353 357 352 352 354 352 360
221 249 231 241 259 266 260 246 247 252 242 236 232 244 242 243 258 270 269 262 253 259 267 256 250 246 222 234 250 305 352 6 334 352 352 352 355 354 349 353 350 350 351 357
268 248 249 275 288 294 281 280 260 256 273 245 242 257 281 265 266 262 258 252 239 249 264 267 281 190 221 219 226 274 297 335 315 354 358 353 356 354 344 344 348 345 347 357
272 284 283 284 290 309 331 299 282 273 265 275 260 252 266 259 267 272 266 264 250 259 253 237 252 233 213 209 206 236 261 316 352 355 346 352 347 344 347 344 349 341 343 345
266 276 284 285 279 285 269 307 337 314 331 296 289 297 299 294 296 292 291 270 264 273 274 252 242 228 231 200 198 216 274 297 331 347 347 337 349 351 348 334 341 341 342 341
58 9 311 322 182 245 273 223 266 295 297 269 277 297 317 330 326 320 310 285 283 278 295 284 280 259 233 192 175 209 245 280 308 342 352 334 346 339 339 337 340 340 341 340
161 0 29 16 356 326 312 290 287 283 287 254 250 285 314 315 319 322 321 321 7 10 328 326 307 301 270 194 179 203 261 315 320 351 341 341 337 337 339 343 341 339 338 337
308 316 319 322 316 306 307 294 271 278 280 289 267 300 314 310 335 335 344 323 346 24 331 323 294 162 187 163 197 237 344 348 356 348 345 345 344 341 337 338 339 336 337 334
296 298 299 291 308 313 310 309 310 315 309 329 285 310 335 306 313 324 343 10 340 10 333 359 0 125 126 159 106 81 45 26 4 356 351 351 346 338 338 335 334 336 332 332
284 273 277 291 306 316 349 3 2 2 15 63 36 354 354 331 16 36 336 330 2 353 8 12 74 92 138 105 91 80 56 26 12 0 354 343 343 338 337 336 333 332 330 328
315 310 284 274 284 353 332 5 1 31 60 79 81 52 50 32 349 346 344 353 45 340 57 72 90 128 126 106 106 99 69 39 25 1 357 352 342 338 337 335 329 329 323 326
337 334 337 213 14 351 330 338 6 12 359 17 41 66 56 7 346 348 2 15 44 87 99 127 130 144 116 120 123 111 60 44 18 13 350 352 345 342 337 333 331 330 329 326
270 272 353 308 341 359 350 332 333 27 31 5 14 34 14 356 352 352 351 350 41 66 91 107 125 104 120 150 156 149 52 39 41 1 356 353 348 343 337 332 331 329 327 326